Location: Wildlife_Club
(35.6000°N, 81.4330°W)
Time: 01:22:15
(UTC-05:00)

Daily predictions for brighter satellites

Satellite Brightness Start Highest point End
(mag) Time Altitude Azimuth Time Altitude Azimuth Time Altitude Azimuth
Cosmos 1980 Rocket 3.9 04:14:52 29° E 04:14:52 29° E 04:18:21 10° SE
USA 267 4.0 04:38:31 10° NE 04:42:46 40° NNE 04:42:46 40° NNE
Meteor 2-4 Rocket 4.5 04:47:13 42° NE 04:48:19 48° ENE 04:53:42 10° SSE
Cosmos 2279 Rocket 4.1 04:52:42 65° SSE 04:52:42 65° SSE 04:57:54 10° S
SL-16 R/B 4.1 04:51:39 16° NNE 04:54:52 25° ENE 04:59:29 10° ESE
Cosmos 2322 Rocket 4.0 04:56:14 16° NNE 04:59:42 27° ENE 05:04:27 10° ESE
CZ-4C R/B 2.8 05:01:47 45° NNE 05:01:47 45° NNE 05:05:47 10° NNE
Meteor 1-13 Rocket 4.3 05:01:02 81° NNE 05:01:20 85° E 05:07:17 10° S
Meteor 2-20 4.3 04:55:23 10° S 05:01:28 84° E 05:07:34 10° N
Cosmos 2360 4.1 05:03:30 84° ENE 05:03:30 84° ENE 05:09:11 10° SSE
BREEZE-M DEB (TANK) 4.3 05:10:42 34° NNE 05:10:42 34° NNE 05:15:12 10° E
Cosmos 1697 Rocket 4.2 05:18:47 22° SSW 05:18:47 22° SSW 05:21:01 10° S
Cosmos 2180 Rocket 4.3 05:14:29 54° NNW 05:15:56 73° W 05:22:08 10° S
SeaSat 1 3.4 05:11:10 10° NNE 05:13:59 34° N 05:13:59 34° N
USA 234 4.2 05:11:27 10° E 05:17:25 39° NE 05:20:47 24° NNW
Meteor 1-5 Rocket 4.0 05:15:53 10° S 05:21:21 89° E 05:26:42 10° N
CZ-2C R/B 4.1 05:19:21 10° NNE 05:23:36 31° E 05:27:44 10° SSE
Meteor 1-19 Rocket 4.5 05:24:48 51° WSW 05:24:48 51° WSW 05:29:49 10° S
Cosmos 1500 4.4 05:26:00 10° SSE 05:29:38 43° E 05:33:18 10° NNE
SKYMED 2 4.2 05:26:12 10° SSE 05:30:25 55° ENE 05:33:15 20° N
Landsat 4 3.8 05:27:54 10° SSE 05:31:39 74° ENE 05:31:50 71° NE
NOAA 6 3.9 05:33:57 10° NNE 05:39:06 86° WNW 05:44:15 10° SSW
Nadezhda 4 Rocket 3.9 05:33:29 10° SSW 05:39:33 61° W 05:45:37 10° N
Cosmos 192 4.2 05:36:21 10° SSW 05:41:12 65° WNW 05:46:05 10° N
OAO 3 Copernicus 4.3 05:43:10 43° WSW 05:44:49 78° S 05:49:51 10° E
Cosmos 773 Rocket 4.1 05:43:25 24° SW 05:46:12 49° WNW 05:51:13 10° N
RESURS DK-1 3.8 05:49:31 23° SW 05:49:31 23° SW 05:51:39 10° SSW
Cosmos 2285 Rocket 4.2 05:45:12 10° S 05:51:29 73° ESE 05:57:46 10° NNE
Cosmos 2360 Rocket 3.8 05:50:26 10° N 05:55:28 32° ENE 06:00:28 10° ESE
Cosmos 1980 Rocket 3.0 05:56:42 29° W 05:57:07 29° WSW 06:01:54 10° SSW
Cosmos 1680 Rocket 3.5 05:54:29 10° SSW 05:59:41 84° ESE 06:04:55 10° NNE
Meteor 1-23 Rocket 4.2 05:56:30 13° NNW 06:01:17 54° W 06:06:40 10° S
Cosmos 1025 Rocket 2.9 05:59:15 10° N 06:03:32 85° W 06:07:49 10° S
Okean 1-7 Rocket 3.8 06:00:59 10° N 06:05:32 73° E 06:10:05 10° SSE
CZ-4 R/B 4.4 06:02:49 10° NE 06:05:57 20° E 06:09:05 10° SE
BREEZE-M DEB (TANK) 3.5 06:06:51 23° N 06:06:51 23° N 06:08:57 10° NE
MTI 4.3 06:04:23 10° SSW 06:07:17 36° WSW 06:07:17 36° WSW
IDEFIX/ARIANE 42P 2.5 06:04:27 10° N 06:09:35 60° WNW 06:14:43 10° SSW
Cosmos 1515 3.8 06:07:38 21° NNW 06:09:56 52° W 06:13:40 10° S
COSMO-SKYMED 1 3.1 06:14:27 10° SSW 06:18:29 38° W 06:21:51 14° NNW
Cosmos 1975 2.7 06:17:32 10° SSW 06:21:30 73° W 06:25:29 10° N
Cosmos 1092 Rocket 4.3 06:16:10 10° SSW 06:21:50 40° WNW 06:27:34 10° N
Okean 2 3.8 06:22:45 10° NNW 06:26:37 41° W 06:30:28 10° SSW
Thor Agena Rocket 3.9 06:21:43 10° SSE 06:26:42 67° ENE 06:31:45 10° N
OE (NEXTSAT) 4.4 06:26:03 20° NW 06:28:22 84° NNE 06:31:55 10° ESE
SJ-12 3.8 06:24:50 10° N 06:28:52 66° WNW 06:32:53 10° SSW
Okean 1 Rocket 4.2 06:31:06 10° SW 06:34:28 21° WNW 06:37:51 10° NNW
Cosmos 2026 Rocket 4.1 06:28:24 10° SSW 06:34:29 54° W 06:40:41 10° N
Okean-O 3.8 06:31:39 10° NNW 06:35:01 22° WNW 06:38:23 10° WSW
SJ-7 4.5 06:33:40 10° NNE 06:37:45 86° ESE 06:41:53 10° SSW
SL-16 R/B 2.7 06:33:48 10° NW 06:39:04 40° WSW 06:44:18 10° S
APEX 4.1 06:36:53 10° WSW 06:39:43 25° WNW 06:43:06 10° N
Cosmos 1655 Rocket 4.0 06:33:51 10° SSW 06:40:03 70° W 06:46:20 10° N
Meteor 1-4 Rocket 4.2 06:38:02 10° WSW 06:40:27 16° WNW 06:42:52 10° NNW
GPS 2-05 Rocket1 3.2 06:37:22 10° WSW 06:40:44 61° SSE 06:44:04 10° E
Cosmos 2322 Rocket 2.8 06:38:35 10° NW 06:43:47 38° WSW 06:48:58 10° S
CSL-04 Rocket 3.8 06:41:03 10° NNE 06:46:38 87° ESE 06:52:08 10° SSW
Aureole 1 Rocket 3.2 06:44:53 10° S 06:47:47 50° ESE 06:51:01 10° NNE
Cosmos 1553 Rocket 4.0 06:41:41 10° N 06:47:55 84° W 06:54:02 10° S
IRAS Rocket 4.5 06:42:33 10° NNE 06:48:07 78° ESE 06:53:42 10° S
Cosmos 2112 Rocket 4.4 06:43:21 10° SW 06:48:10 39° WNW 06:53:02 10° N
Meteor 1-12 Rocket 4.3 06:42:51 10° SSW 06:48:29 59° W 06:54:05 10° N
ATLAS CENTAUR R/B 1.0 06:45:29 10° SW 06:49:12 67° WNW 06:52:51 10° NNE
Cosmos 1743 2.9 06:45:44 10° SSW 06:49:25 49° W 06:53:08 10° N
CZ-4C R/B 3.8 06:47:02 10° WNW 06:49:38 14° NW 06:52:36 10° N
MSX 4.2 06:46:34 10° N 06:51:56 42° WNW 06:57:16 10° SW
Cosmos 1184 Rocket 4.1 06:50:18 10° NW 06:52:59 23° W 06:55:42 10° SSW
Cosmos 1892 Rocket 3.7 06:53:09 10° NNW 06:57:26 54° W 07:01:39 10° S
Cosmos 1842 4.3 06:53:44 10° N 06:57:36 50° E 07:01:27 10° SSE
YAOGAN 1 3.5 06:53:23 10° NNE 06:57:39 54° E 07:01:52 10° S
Cosmos 1484 Rocket 2.9 06:53:55 10° N 06:57:40 50° WNW 07:01:20 10° SSW
Cosmos 2056 Rocket 3.9 06:53:09 10° NNW 06:58:15 66° ENE 07:03:22 10° SSE
USA 234 3.5 06:53:47 10° SSE 07:00:12 58° SW 07:06:39 10° NW
CZ-2C R/B 3.4 06:57:58 10° NNW 07:01:38 22° WNW 07:05:13 10° WSW
Lacrosse 5 2.4 06:57:59 10° SSW 07:03:00 66° SE 07:08:02 10° NE
